Weather History for KDIJ - March, 2013

Change the Weather History Date:

Sunday, March 3, 2013

  Actual Average (KRXE) Record (KRXE)
Temperature  
Mean Temperature 28 °F 28 °F  
Max Temperature 36 °F 39 °F 50 °F (2006)
Min Temperature 21 °F 18 °F -12 °F (2002)
Degree Days  
Heating Degree Days 36 37  
Month to date heating degree days 112  
Since 1 July heating degree days 6085  
Cooling Degree Days 0 0  
Month to date cooling degree days 0  
Year to date cooling degree days 0  
Moisture  
Dew Point 27 °F    
Average Humidity 87    
Maximum Humidity 100    
Minimum Humidity 67    
Precipitation  
Precipitation 0.05 in 0.03 in - ()
Month to date precipitation 0.09  
Year to date precipitation 1.66  
Sea Level Pressure  
Sea Level Pressure 29.87 in    
Wind  
Wind Speed 12 mph (South)    
Max Wind Speed 29 mph    
Max Gust Speed 33 mph    
Visibility 6 miles    
Events Snow    
T = Trace of Precipitation, MM = Missing Value Source: NWS Daily Summary

Daily Weather History Graph

Daily Weather History Graph

Search for Another Location

Airport or City:

Trip Planner

Search our weather history database for the weather conditions in past years. The results will help you decide how hot, cold, wet, or windy it might be!

Date:

Astronomy

Mar. 03, 2013 Rise Set
Actual Time 6:57 AM MST 6:16 PM MST
Civil Twilight 6:28 AM MST 6:44 PM MST
Nautical Twilight 5:55 AM MST 7:18 PM MST
Astronomical Twilight 5:21 AM MST 7:51 PM MST
Moon 12:10 AM MST (3/3) 10:02 AM MST (3/3)
Length of Visible Light 12h 16m
Length of Day
11h 18m
Waning Gibbous, 63% of the Moon is Illuminated
Mar 3
Waning Gibbous
Mar 4
Last Quarter
Mar 11
New
Mar 19
First Quarter
Mar 27
Full

Hourly Weather History & Observations

Time (MST) Temp. Windchill Dew Point Humidity Pressure Visibility Wind Dir Wind Speed Gust Speed Precip Events Conditions
12:56 AM 36.9 °F 29.6 °F 30.0 °F 76% 29.97 in 10.0 mi South 10.4 mph - N/A   Overcast
1:56 AM 34.9 °F 26.6 °F 31.1 °F 86% 29.94 in 10.0 mi South 11.5 mph - 0.00 in   Mostly Cloudy
2:56 AM 34.9 °F 27.1 °F 32.0 °F 89% 29.92 in 10.0 mi South 10.4 mph - 0.00 in   Overcast
3:13 AM 35.6 °F 27.1 °F 32.0 °F 87% 29.97 in 10.0 mi SSE 12.7 mph - 0.00 in   Overcast
3:56 AM 34.0 °F 26.6 °F 32.9 °F 96% 29.89 in 10.0 mi South 9.2 mph - 0.00 in   Overcast
4:01 AM 33.8 °F 25.8 °F 33.8 °F 100% 29.95 in 10.0 mi South 10.4 mph - 0.00 in   Overcast
4:06 AM 33.8 °F 25.3 °F 32.0 °F 93% 29.95 in 10.0 mi South 11.5 mph - 0.01 in   Overcast
4:10 AM 33.8 °F 25.8 °F 32.0 °F 93% 29.95 in 10.0 mi South 10.4 mph - 0.01 in   Overcast
4:42 AM 33.8 °F 24.8 °F 32.0 °F 93% 29.94 in 10.0 mi South 12.7 mph - 0.01 in   Overcast
4:56 AM 34.0 °F 24.2 °F 32.0 °F 92% 29.89 in 10.0 mi South 15.0 mph - 0.02 in   Overcast
5:03 AM 33.8 °F 23.9 °F 32.0 °F 93% 29.94 in 10.0 mi South 15.0 mph - 0.00 in   Mostly Cloudy
5:56 AM 34.0 °F 25.0 °F 32.0 °F 92% 29.90 in 10.0 mi South 12.7 mph - 0.01 in   Mostly Cloudy
6:26 AM 33.8 °F 23.9 °F 32.0 °F 93% 29.92 in 10.0 mi South 15.0 mph - 0.00 in   Mostly Cloudy
6:56 AM 34.9 °F 25.7 °F 32.0 °F 89% 29.88 in 10.0 mi South 13.8 mph - 0.00 in   Overcast
7:56 AM 34.0 °F 24.6 °F 32.0 °F 92% 29.86 in 10.0 mi South 13.8 mph - 0.00 in   Overcast
8:41 AM 33.8 °F 25.3 °F 32.0 °F 93% 29.88 in 5.0 mi South 11.5 mph - 0.00 in   Overcast
8:56 AM 34.0 °F 24.6 °F 32.0 °F 92% 29.84 in 8.0 mi South 13.8 mph - 0.00 in   Overcast
9:49 AM 33.8 °F 23.5 °F 32.0 °F 93% 29.86 in 10.0 mi South 16.1 mph - 0.01 in   Mostly Cloudy
9:56 AM 34.0 °F 23.4 °F 32.0 °F 92% 29.81 in 10.0 mi South 17.3 mph - 0.01 in   Mostly Cloudy
10:25 AM 33.8 °F 22.8 °F 32.0 °F 93% 29.84 in 10.0 mi South 18.4 mph - 0.00 in   Mostly Cloudy
10:41 AM 35.6 °F 24.8 °F 32.0 °F 87% 29.83 in 10.0 mi South 19.6 mph - 0.00 in   Mostly Cloudy
10:56 AM 34.9 °F 24.6 °F 32.0 °F 89% 29.79 in 10.0 mi SSW 17.3 mph - 0.00 in   Mostly Cloudy
11:28 AM 35.6 °F 26.6 °F 32.0 °F 87% 29.84 in 4.0 mi South 13.8 mph - 0.00 in Snow Light Snow
11:34 AM 33.8 °F 23.2 °F 30.2 °F 87% 29.84 in 1.8 mi South 17.3 mph - 0.00 in Snow Light Snow
11:38 AM 33.8 °F 23.5 °F 30.2 °F 87% 29.84 in 1.2 mi South 16.1 mph - 0.00 in Snow Light Snow
11:48 AM 33.8 °F 23.2 °F 32.0 °F 93% 29.83 in 1.0 mi SSE 17.3 mph 20.7 mph 0.00 in Snow Light Snow
11:56 AM 34.0 °F 24.2 °F 32.0 °F 92% 29.78 in 0.8 mi SSE 15.0 mph - 0.01 in Snow Light Snow
12:02 PM 33.8 °F 23.9 °F 32.0 °F 93% 29.82 in 1.0 mi SSE 15.0 mph - 0.00 in Snow Light Snow
12:05 PM 33.8 °F 23.2 °F 32.0 °F 93% 29.82 in 1.5 mi SSE 17.3 mph - 0.00 in Snow Light Snow
12:14 PM 33.8 °F 23.2 °F 32.0 °F 93% 29.82 in 2.0 mi SSE 17.3 mph - 0.00 in Snow Light Snow
12:25 PM 33.8 °F 24.3 °F 32.0 °F 93% 29.82 in 6.0 mi SSE 13.8 mph - 0.00 in Snow Light Snow
12:33 PM 35.6 °F 26.6 °F 32.0 °F 87% 29.81 in 10.0 mi South 13.8 mph - 0.00 in Snow Light Snow
12:56 PM 36.0 °F 32.1 °F 31.1 °F 82% 29.73 in 10.0 mi Variable 4.6 mph - 0.00 in   Overcast
1:56 PM 36.0 °F 24.7 °F 29.1 °F 76% 29.72 in 10.0 mi SSW 21.9 mph 27.6 mph N/A   Overcast
2:56 PM 36.0 °F 26.0 °F 27.1 °F 70% 29.71 in 10.0 mi SSW 17.3 mph 23.0 mph N/A   Mostly Cloudy
3:56 PM 36.0 °F 24.4 °F 26.1 °F 67% 29.70 in 10.0 mi SW 23.0 mph 32.2 mph N/A   Mostly Cloudy
4:56 PM 34.9 °F 25.7 °F 25.2 °F 68% 29.73 in 10.0 mi SW 13.8 mph 33.4 mph N/A   Mostly Cloudy
5:56 PM 34.0 °F 20.5 °F 24.1 °F 67% 29.76 in 10.0 mi SW 28.8 mph 32.2 mph 0.00 in   Overcast
6:36 PM 32.0 °F 19.5 °F 26.6 °F 80% 29.82 in 5.0 mi SW 21.9 mph - 0.00 in Snow Light Snow
6:56 PM 31.1 °F 19.7 °F 26.1 °F 82% 29.80 in 9.0 mi WSW 17.3 mph - 0.00 in Snow Light Snow
7:06 PM 26.6 °F 15.2 °F 24.8 °F 93% 29.85 in 2.5 mi NW 13.8 mph - 0.00 in Snow Light Snow
7:15 PM 26.6 °F 14.7 °F 23.0 °F 86% 29.86 in 1.5 mi NW 15.0 mph - 0.00 in Snow Light Snow
7:28 PM 24.8 °F 13.4 °F 23.0 °F 93% 29.86 in 1.2 mi NW 12.7 mph - 0.00 in Snow Light Snow
7:44 PM 24.8 °F 14.0 °F 23.0 °F 93% 29.87 in 1.8 mi NW 11.5 mph - 0.00 in Snow Light Snow
7:56 PM 25.2 °F 15.1 °F 23.0 °F 91% 29.87 in 1.5 mi NW 10.4 mph - 0.00 in Snow Light Snow
8:10 PM 24.8 °F 14.6 °F 21.2 °F 86% 29.89 in 2.0 mi NW 10.4 mph - 0.00 in Snow Light Snow
8:17 PM 24.8 °F 15.3 °F 21.2 °F 86% 29.89 in 1.8 mi NNW 9.2 mph - 0.00 in Snow Light Snow
8:24 PM 24.8 °F 15.3 °F 19.4 °F 80% 29.89 in 1.5 mi NNW 9.2 mph - 0.00 in Snow Light Snow
8:31 PM 24.8 °F 16.1 °F 19.4 °F 80% 29.89 in 1.2 mi North 8.1 mph - 0.00 in Snow Light Snow
8:56 PM 23.0 °F - 20.1 °F 89% 29.91 in 1.8 mi Calm Calm - 0.00 in Snow Light Snow
9:08 PM 23.0 °F 18.4 °F 19.4 °F 86% 29.90 in 1.2 mi East 3.5 mph - 0.00 in Snow Light Snow
9:18 PM 23.0 °F 18.4 °F 19.4 °F 86% 29.91 in 1.2 mi ESE 3.5 mph - 0.00 in Snow Light Snow
9:27 PM 23.0 °F 18.4 °F 19.4 °F 86% 29.91 in 1.2 mi SE 3.5 mph - 0.00 in Snow Light Snow
9:40 PM 21.2 °F - 19.4 °F 93% 29.91 in 1.0 mi Calm Calm - 0.00 in Snow Light Snow
9:56 PM 22.1 °F 17.4 °F 20.1 °F 92% 29.92 in 1.8 mi SE 3.5 mph - 0.00 in Snow Light Snow
10:09 PM 21.2 °F 13.6 °F 19.4 °F 93% 29.91 in 3.0 mi SE 5.8 mph - 0.00 in Snow Light Snow
10:19 PM 21.2 °F 13.6 °F 19.4 °F 93% 29.92 in 10.0 mi ESE 5.8 mph - 0.00 in Snow Light Snow
10:37 PM 21.2 °F 14.9 °F 19.4 °F 93% 29.92 in 8.0 mi ESE 4.6 mph - 0.00 in Snow Light Snow
10:44 PM 21.2 °F 16.4 °F 15.8 °F 80% 29.92 in 5.0 mi ESE 3.5 mph - 0.00 in Snow Light Snow
10:56 PM 22.1 °F 13.7 °F 16.2 °F 78% 29.91 in 10.0 mi SE 6.9 mph - 0.00 in Snow Light Snow
11:13 PM 21.2 °F 11.7 °F 17.6 °F 86% 29.91 in 3.0 mi SE 8.1 mph - 0.00 in Snow Light Snow
11:36 PM 21.2 °F 12.6 °F 15.8 °F 80% 29.91 in 10.0 mi SE 6.9 mph - 0.00 in   Overcast
11:56 PM 21.0 °F 11.4 °F 15.1 °F 78% 29.92 in 10.0 mi SSE 8.1 mph - 0.00 in   Overcast